www.pogodaiklimat.ru

Погода и климат >> Архив погоды >> Россия >> Камчатский край >> Усть-Хайрюзово


АРХИВ ПОГОДЫ в Усть-Хайрюзово

Время (UTC), дата Ветер
(напр.,м/с)
 
Видим.   Явления Облачность Т
(С)
Тd
(С)
f
(%)
Тe
(С)
Тes
(С)
Комфортность P
(гПа)
Po
(гПа)
Тmin
(С)
Tmax
(С)
R
(мм)
R24
(мм)
S
(см)
21 17.08 С 3 50 км 3/0
[Ci fib]
+14.4 +8.2 66 +14 +16 1014.7 1013.7 +10.4
00 18.08 С 7 50 км ясно +16.8 +8.9 60 +16 +18 1014.8 1013.8
03 18.08 С 8-12
{12}
50 км ясно +16.3 +9.1 62 +15 +17 1014.8 1013.9
06 18.08 С 8-11
{14}
50 км ясно +18.3 +9.4 56 +18 +18 1014.6 1013.6
09 18.08 СВ 3
{11}
50 км ясно +16.0 +9.8 67 +16 +16 1015.6 1014.6 +20.7
12 18.08 С 2 20 км ясно +11.8 +8.7 81 +11 +11 1017.0 1016.1
15 18.08 В 1 20 км ясно +9.0 +7.7 92 +8 +8 1018.0 1017.0
18 18.08 штиль 0 50 км ясно +8.6 +7.0 90 +8 +8 1019.0 1018.0
21 18.08 В 1 50 км ясно +15.8 +9.1 64 +17 +20 1019.7 1018.7 +8.0
00 19.08 СЗ 3 50 км ясно +17.8 +10.3 61 +18 +26 1019.9 1019.0
03 19.08 С 5 50 км ясно +18.0 +10.4 61 +18 +23 1019.7 1018.7
06 19.08 С 6 50 км ясно +17.5 +10.5 63 +17 +18 1019.0 1018.0
09 19.08 СЗ 3 50 км 3/0
[Ac trans]
+14.8 +11.3 80 +14 +14 1018.8 1017.8 +19.2
12 19.08 Ю 1 20 км ясно +12.8 +11.2 90 +13 +13 1019.5 1018.5
15 19.08 ЮЗ 1 20 км ясно +10.5 +9.1 91 +10 +10 1019.6 1018.6
18 19.08 ЮВ 2 50 км ясно +9.0 +7.8 92 +7 +7 1020.4 1019.4
21 19.08 ЮВ 3 50 км ясно +13.3 +10.0 80 +12 +14 1020.4 1019.4 +8.7
00 20.08 СЗ 3 50 км 6/0
[Ac trans Ci]
+17.4 +11.4 68 +17 +23 1019.9 1018.9
03 20.08 С 4 50 км 8/0
[Ac trans Ci]
+17.2 +11.1 67 +17 +22 1019.0 1018.0
06 20.08 С 5 50 км 9/0
[Ac As Ci]
+15.5 +10.3 71 +14 +15 1018.0 1017.1
09 20.08 С 4 50 км 9/0
[Ac As Ci]
+14.9 +11.2 79 +14 +14 1017.5 1016.5 +20.0
12 20.08 С 3 20 км 9/0
[Ac As Ci]
+13.6 +11.1 85 +12 +12 1017.2 1016.3
15 20.08 С 2 20 км 9/0
[Ac trans Ci]
+11.5 +9.8 89 +10 +10 1016.2 1015.2
18 20.08 С 3 50 км 9/0
[Ac As Ci]
+9.5 +8.1 91 +7 +7 1016.3 1015.3
21 20.08 С 3 20 км 9/3 300 м
[St Ac As]
+11.5 +9.6 88 +10 +10 1016.1 1015.1 +9.0
00 21.08 С 6 50 км 8/0
[Ac trans]
+14.7 +10.8 77 +13 +15 1015.2 1014.2
03 21.08 С 8-11
{11}
50 км 8/0
[Ac trans Ci fib]
+15.9 +10.5 70 +14 +15 1013.9 1012.9
06 21.08 С 8-11
{12}
50 км 4/0
[Ci fib]
+15.9 +9.9 68 +14 +15 1013.4 1012.4
09 21.08 С 7-10
{12}
50 км 3/0
[Ac trans]
+12.7 +9.3 80 +10 +10 1013.6 1012.6 +16.8
12 21.08 С 5
{11}
20 км ясно +10.3 +8.9 91 +7 +7 1014.3 1013.3
15 21.08 С 3 4000 м дымка 10/10 180 м
[St]
+10.0 +8.9 93 +8 +8 1013.9 1012.9
18 21.08 СВ 1 10 км местами туман поземный ясно +6.6 +5.7 94 +5 +5 1014.4 1013.4
21 21.08 ЮВ 2 500 м туман ?/? +8.1 +7.4 95 +6 +6 1015.6 1014.6 +6.3
00 22.08 ЮЗ 5 20 км {туман} 10/10 210 м
[St]
+12.2 +9.5 84 +10 +10 1016.2 1015.3
03 22.08 Ю 5 50 км 8/8 420 м
[St]
+14.3 +9.0 70 +13 +14 1016.7 1015.8
06 22.08 ЮЗ 3 20 км 9/9 420 м
[St]
+12.7 +8.8 77 +11 +12 1016.9 1015.9
09 22.08 ЮЗ 3 20 км 10/10 450 м
[Sc]
+11.3 +9.2 87 +9 +9 1018.0 1017.0 +15.0
12 22.08 Ю 4 10 км 10/10 420 м
[St]
+12.1 +9.3 83 +10 +10 1018.8 1017.8
15 22.08 Ю 3 10 км 10/10 500 м
[Sc]
+11.6 +9.3 86 +10 +10 1019.5 1018.5
18 22.08 Ю 3 10 км 10/10 480 м
[Sc]
+11.3 +9.3 87 +9 +9 1019.9 1018.9
21 22.08 Ю 4 10 км 10/10 300 м
[St]
+12.1 +8.3 78 +10 +10 1020.5 1019.5 +11.2
00 23.08 З 3 20 км 10/10 420 м
[St]
+12.4 +9.3 81 +11 +11 1020.7 1019.7
03 23.08 З 4 20 км 10/10 630 м
[Sc]
+12.5 +8.8 78 +11 +11 1020.9 1020.0
06 23.08 З 3 50 км 10/10 630 м
[Sc]
+12.5 +8.2 75 +11 +11 1020.9 1019.9
09 23.08 З 1 50 км 10/10 630 м
[Sc]
+11.9 +8.5 80 +12 +12 1021.1 1020.1 +13.2
12 23.08 ЮЗ 1 20 км 10/10 630 м
[Sc]
+11.7 +8.0 78 +12 +12 1022.1 1021.1
15 23.08 Ю 1 20 км 10/10 600 м
[Sc]
+11.2 +8.3 82 +11 +11 1022.0 1021.0
18 23.08 Ю 3 50 км 10/10 630 м
[Sc]
+11.1 +8.5 84 +9 +9 1022.3 1021.3
21 23.08 Ю 3 50 км 10/10 420 м
[St]
+11.3 +8.6 83 +9 +9 1022.2 1021.2 +10.9
00 24.08 З 3 50 км 10/10 500 м
[Sc]
+12.4 +8.1 75 +11 +11 1022.3 1021.3
03 24.08 З 2 50 км 10/10 300 м
[St]
+11.8 +8.2 79 +11 +11 1021.6 1020.6
06 24.08 СЗ 2 50 км 9/9 570 м
[Sc]
+11.8 +7.7 76 +11 +11 1020.9 1019.9
09 24.08 СЗ 2 50 км 10/10 500 м
[Sc]
+11.2 +7.9 80 +10 +10 1021.0 1020.0 +12.5
12 24.08 штиль 0 20 км 10/10 630 м
[Sc]
+10.9 +8.3 84 +10 +10 1020.3 1019.3
15 24.08 ЮВ 2 20 км 10/10 700 м
[Sc]
+10.8 +8.7 87 +9 +9 1019.7 1018.7

 

Местоположение метеостанции Усть-Хайрюзово (Камчатский край, Россия): широта 57.08 долгота 156.70 высота над уровнем моря 8 м.

В архиве по умолчанию представлена погода в Усть-Хайрюзово за последнюю неделю. Архивные данные за месяц целиком и за предыдущие месяцы, начиная с января 2011 года, Вы можете получить, выбрав интересующий диапазон дат из раскрывающегося списка и нажав кнопку "Ввод!".


*Определитесь, кто Вы:
робот инопланетянин человек

Внимание! Время в таблицах - всемирное. Для получения местного времени необходимо прибавить поправку, которая равна 12 ч.

Смотрите также архив погоды в соседних городах и на ближайших метеорологических станциях:

Погода в Тигиле (Камчатский край, Россия) (136 км)
Погода в Эссо (Камчатский край, Россия) (177 км)
Погода в Иче (Камчатский край, Россия) (183 км)
Погода в Усть-Воямполке (Камчатский край, Россия) (213 км)
Погода в Козыревске (Камчатский край, Россия) (222 км)
Погода в Долиновке (Камчатский край, Россия) (261 км)
Погода в Ключах (Камчатский край, Россия) (264 км)
Погода в Мильково (Камчатский край, Россия) (290 км)
Погода в Палане (Камчатский край, Россия) (291 км)
Погода на Мысе Братьев (Магаданская область, Россия) (301 км)

Пояснения к столбцам:

Ветер - указаны скорость ветра в м/с - средняя за 10 мин, порывы в срок и между сроками (в фигурных скобках) и направление, откуда дует ветер: С - северный, СВ - северо-восточный, В - восточный, ЮВ - юго-восточный, Ю - южный, ЮЗ - юго-западный, З - западный, СЗ - северо-западный.
Видимость - горизонтальная дальность видимости в метрах или километрах. При видимости от 1 до 10 км при отсутствии осадков обычно наблюдается дымка, при ухудшении видимости до 1 км и менее - туман. В сухую погоду видимость может ухудшаться дымом, пылью или мглою.
Явления - указаны атмосферные явления, наблюдавшиеся в срок или в последний час перед сроком; фигурными скобками обозначены явления, наблюдавшиеся между сроками (за 1-3 часа до срока); квадратными скобками обозначены град или гололедные отложения с указанием их диаметра в мм.
Облачность - указаны через наклонную черту общая и нижняя облачность в баллах и высота нижней границы облаков в метрах; квадратными скобками обозначены формы облаков: Ci - перистые, Cs - перисто-слоистые, Cc - перисто-кучевые, Ac - высококучевые, As - высокослоистые, Sc - слоисто-кучевые, Ns - слоисто-дождевые, Cu - кучевые, Cb - кучево-дождевые. Подробнее классификацию облаков см. в Атласе облаков (PDF).
T - Температура воздуха - температура, измеренная на высоте 2 м над землей.
Td - Температура точки росы - температура, при понижении до которой содержащийся в воздухе водяной пар достигнет насыщения.
f - Относительная влажность воздуха - влажноcть воздуха, измеренная на высоте 2 м над землей.
Te - Эффективная температура - температура, которую ощущает одетый по сезону человек в тени. Характеристика душности погоды. При расчете учитывается влияние влажности воздуха и скорости ветра на теплоощущения человека.
Tes - Эффективная температура на солнце - температура, которую ощущает человек, с поправкой на солнечный нагрев. Характеристика знойности погоды. Зависит от высоты солнца над горизонтом, облачности и скорости ветра. Ночью, в пасмурную погоду, а также при ветре 12 м/с и более поправка равна нулю.
P - Атмосферное давление - приведенное к уровню моря атмосферное давление.
Po - Атмосферное давление - измеренное на уровне метеостанции атмосферное давление.
Tmin - Минимальная температура - минимум температуры воздуха на высоте 2 м над землей.
Tmax - Максимальная температура - максимум температуры воздуха на высоте 2 м над землей.
R - Количество осадков - Количество выпавших осадков за период времени, мм. При наведении курсора мыши на число - период времени, за который выпало указанное количество осадков.
R24 - Количество осадков - Количество выпавших осадков за 24 часа, мм.
S - Снежный покров - Высота снежного покрова, см. При наведении курсора мыши на число - состояние снежного покрова и степень покрытия местности в баллах.